{"data":{"norad_id":61875,"intl_designator":"2024-204B","name":"STARLINK-11316 [DTC]","alt_names":[],"object_type":"PAYLOAD","status":"ACTIVE","operator":null,"country":"US","launch_date":"2024-11-09","launch_site_code":"AFWTR","launch_vehicle":null,"mission":null,"orbit_class":"UNKNOWN","rcs_meters":null,"size_class":null,"mass_kg":null,"dimensions":null,"purposes":["comms"],"wikipedia_slug":null,"has_3d_model":false,"image_url":null,"decayed_at":null,"tle_current":{"epoch":"2026-05-24T19:15:44.538048Z","epoch_age_seconds":85413,"freshness":"FRESH","line1":"1 61875U 24204B   26144.80259882  .00000698  00000+0  10613-4 0  9995","line2":"2 61875  53.1585 340.7176 0000846  87.8258 272.2857 15.69707655 88875","mean_motion":15.69707655,"eccentricity":8.46e-5,"inclination_deg":53.1585,"raan_deg":340.7176,"arg_perigee_deg":87.8258,"mean_anomaly_deg":272.2857,"bstar":1.0613e-5,"rev_number":8887,"period_min":91.736827262908,"perigee_km":359.16343707952,"apogee_km":360.30348476151,"semimajor_km":6737.8704609205,"source":"CELESTRAK","updated_at":"2026-05-25T13:38:19.473990Z"}}}